Terminal Aerodrome Forecast
Issued by NWS Duluth, MN

Home | Current Version | Previous Version | Text Only | Print | Product List | Glossary On
Versions: 1 2 3 4 5 6 7 8 9 10 11 12 13 14 15 16 17 18 19 20 21 22 23 24 25 26 27 28 29 30 31
000
FTUS43 KDLH 181745
TAFDLH
TAF
KDLH 181745Z 1818/1918 31013G24KT P6SM SKC
     FM190000 30010KT P6SM SKC
     FM190500 31004KT 5SM BR BKN150
     FM190800 VRB03KT 2SM BR BKN120
     FM191400 10005KT P6SM BKN120=

USA.gov is the U.S. government's official web portal to all federal, state and local government web resources and services.